User: anonymous   Login
Location: Deer Path Park
(40.5570°N, 74.8450°W)
Time: 21:25:14
(UTC-04:00)
Language:

Iridium 49 - Orbit

View from above orbital plane
View from above orbital plane
View from above satellite
View from above satellite

Ground track
Ground track

The orbit data is extracted from the following two-line orbital elements,

1 25108U 97082E   15091.90293284  .00000515  00000-0  17677-3 0  9997
2 25108 086.3966 232.8305 0002209 097.6992 014.6034 14.34218142904667
Epoch (UTC): 01 April 2015 21:40:13
Eccentricity: 0.0002209
inclination: 86.3966°
perigee height: 776 km
apogee height: 779 km
right ascension of ascending node: 232.8305°
argument of perigee: 97.6992°
revolutions per day: 14.34218142
mean anomaly at epoch: 14.6034°
orbit number at epoch: 90466

The dashed part of the orbit path shows where the satellite is in the earth's shadow,  

DLR